Weather Roundup
Issued by NWS Springfield, MO

Home | Current Version | Previous Version | Text Only | Print | Product List | Glossary On
Versions: 1 2 3 4 5 6 7 8 9 10 11 12 13 14 15 16 17 18 19 20 21 22 23 24 25 26 27 28 29 30 31 32 33 34 35 36 37 38 39 40 41 42 43 44 45 46 47 48 49 50
000
NZUS99 KSGF 301107
HRRSGF

HOURLY WEATHER
NATIONAL WEATHER SERVICE SPRINGFIELD MO
500 AM CST FRI JAN 30 2015

......SGF CWA......

CITY           SKY/WX    TMP DP  RH WIND       PRES   REMARKS
SPRINGFIELD    CLEAR     23  19  85 N6        30.47F WCI  16
JOPLIN         CLEAR     24  21  88 CALM      30.52R
WEST PLAINS    CLEAR     27  21  78 NW5       30.46R WCI  22
ROLLA          CLEAR     25  20  81 NW8       30.47R WCI  16
OSAGE BEACH    CLEAR     25  19  80 N5        30.51S WCI  19
BRANSON        CLEAR     25  21  86 NW3       30.48S

......SURROUNDING SGF CWA......

CITY           SKY/WX    TMP DP  RH WIND       PRES   REMARKS
CHANUTE        PTCLDY    22  20  92 N5        30.52F WCI  16
PARSONS        PTCLDY    25  22  88 NE5       30.53F WCI  19
COFFEYVILLE    CLEAR     26  23  88 N3        30.53S
EMPORIA        CLEAR     20  19  96 CALM      30.51F
GROVE OK       CLEAR     25  25 100 CALM      30.52F
ROGERS AR      CLEAR     27  23  85 E5        30.48F WCI  22
SILOAM SPRINGS CLEAR     27  18  69 NE3       30.50S
HARRISON AR    CLEAR     27  23  85 NW5       30.48R WCI  22
NEAR YELLVILLE CLEAR     30  21  69 NW3       30.49R

......KANSAS AND MISSOURI......

CITY           SKY/WX    TMP DP  RH WIND       PRES   REMARKS
KANSAS CTY INT CLEAR     20  18  92 N6        30.53F WCI  12
DOWNTOWN KC    CLEAR     26  22  84 N3        30.54F
COLUMBIA       CLEAR     24  20  84 N8        30.51R WCI  15
SEDALIA        CLEAR     25  21  85 NW5       30.53R WCI  19
ST JOSEPH      FOG       14  11  87 N6        30.56S VSB 1/2 WCI   5
ST LOUIS       MOCLDY    30  19  63 N13       30.50R WCI  20
SPIRIT OF STL  CLOUDY    30  20  66 N8        30.50R WCI  22
KIRKSVILLE     CLEAR     21  18  88 N9        30.52S WCI  11
WICHITA        MOCLDY    21  16  81 W3        30.52R
TOPEKA         PTCLDY    18  15  88 CALM      30.55F
OLATHE         FAIR      23  20  88 NW5       30.52S WCI  17

......TENNESSEE......

CITY           SKY/WX    TMP DP  RH WIND       PRES   REMARKS
MEMPHIS        CLEAR     37  28  70 N9        30.43S WCI  30
NASHVILLE      CLOUDY    36  26  67 NW13G22   30.41R WCI  27

......ARKANSAS.......

CITY           SKY/WX    TMP DP  RH WIND       PRES   REMARKS
FAYETTEVILLE   CLEAR     23  21  92 CALM      30.48F
FT SMITH       CLEAR     34  25  69 N3        30.49F
LITTLE ROCK    CLEAR     33  26  75 N9        30.49S WCI  25

......OKLAHOMA.......

CITY           SKY/WX    TMP DP  RH WIND       PRES   REMARKS
TULSA          CLOUDY    29  26  89 NW6       30.52S WCI  23
PONCA CITY     MOCLDY    23  20  88 NE3       30.53S
MCALESTER      CLEAR     31  27  85 CALM      30.50S
OKLAHOMA CITY  MOCLDY    35  26  69 NE3       30.50R

......IOWA............

CITY           SKY/WX    TMP DP  RH WIND       PRES   REMARKS
DES MOINES     CLEAR     19  13  77 N7        30.55R WCI  10
QUAD CITIES    CLEAR     21  12  68 NW9       30.51R WCI  11

......ILLINOIS........

CITY           SKY/WX    TMP DP  RH WIND       PRES   REMARKS
QUINCY         CLEAR     23  16  74 N8        30.51R WCI  14
CHICAGO        FAIR      22   8  55 N10G20    30.43R WCI  11




USA.gov is the U.S. government's official web portal to all federal, state and local government web resources and services.